Location: Maccacari
(45.1333°N, 11.1333°E)
Time: 10:40:42
(UTC+00:00)

A-11 Canister half - Pass Details

Date: 24 January 2021
Orbit: 1524 x 1684 km, 47.3° (Epoch: 24 February)

Event Time Altitude Azimuth Distance (km) Brightness Sun altitude
Rises 18:36:17 0° 289° (WNW) 4,737 12.7 -25.3°
Reaches altitude 10° 18:39:19 10° 288° (WNW) 3,771 11.9 -25.8°
Maximum altitude 18:48:55 80° 204° (SSW) 1,635 9.0 -27.5°
Enters shadow 18:52:42 44° 125° (SE) 2,131 9.3 -28.2°
